DW0394 Weather Reports


time (UTC)temp
C
wind
direction
speed
KPH
gust
KPH
rain 1hr
cm
rain 24hr
cm
rain mn
cm
humidity
%
barometer
mb
20260507014033 23 257 14.5 19.3 0.00 0.03 0.03 51 1012.0
20260507013034 23 264 4.8 14.5 0.00 0.03 0.03 50 1011.9
20260507012033 23 281 4.8 14.5 0.00 0.03 0.03 49 1011.8
20260507011034 23 269 0.0 11.3 0.00 0.03 0.03 49 1011.7
20260507010033 23 319 0.0 19.3 0.00 0.03 0.03 49 1011.7
20260507005033 23 277 6.4 19.3 0.00 0.03 0.03 49 1011.6
20260507004035 23 275 3.2 19.3 0.00 0.03 0.03 50 1011.5
20260507003034 23 215 3.2 16.1 0.00 0.03 0.03 49 1011.6
20260507002034 23 248 11.3 16.1 0.00 0.03 0.03 50 1011.5
20260507001034 23 263 1.6 11.3 0.00 0.03 0.03 49 1011.5
20260507000033 23 283 4.8 12.9 0.00 0.03 0.03 48 1011.5
20260506235034 23 329 0.0 8.0 0.00 0.03 0.03 47 1011.4
20260506234034 23 254 1.6 6.4 0.00 0.03 0.03 48 1011.5
20260506233033 23 330 0.0 16.1 0.00 0.03 0.03 47 1011.5
20260506232034 23 273 0.0 16.1 0.00 0.03 0.03 47 1011.6
20260506231034 23 254 4.8 9.7 0.00 0.03 0.03 48 1011.8
20260506230034 23 250 6.4 16.1 0.00 0.03 0.03 48 1011.8
20260506225034 22 290 0.0 16.1 0.00 0.03 0.03 47 1011.8
20260506224034 22 281 3.2 16.1 0.00 0.03 0.03 49 1011.9
20260506223034 22 278 0.0 14.5 0.00 0.03 0.03 49 1012.2
20260506222034 22 252 6.4 14.5 0.00 0.03 0.03 50 1012.2
20260506220134 22 332 0.0 11.3 0.00 0.03 0.03 48 1012.4
20260506215034 22 336 0.0 11.3 0.00 0.03 0.03 48 1012.5
20260506214034 22 316 1.6 11.3 0.00 0.03 0.03 48 1012.6
20260506213034 22 275 4.8 14.5 0.00 0.03 0.03 49 1012.7
20260506212034 22 326 0.0 14.5 0.00 0.03 0.03 49 1012.9
20260506211034 22 269 6.4 14.5 0.00 0.03 0.03 50 1013.1
20260506210034 21 262 9.7 16.1 0.00 0.03 0.03 49 1013.1
20260506205034 21 284 0.0 12.9 0.00 0.03 0.03 51 1013.2
20260506204034 21 283 0.0 9.7 0.00 0.03 0.03 50 1013.2
20260506203034 21 274 4.8 11.3 0.00 0.03 0.03 54 1013.4
20260506202034 20 257 0.0 9.7 0.00 0.03 0.03 53 1013.5
20260506200034 20 340 0.0 16.1 0.00 0.03 0.03 54 1013.7
20260506195034 19 298 0.0 9.7 0.00 0.03 0.03 54 1013.9
20260506194034 19 311 4.8 9.7 0.00 0.03 0.03 54 1013.9
20260506193034 20 296 0.0 16.1 0.00 0.03 0.03 56 1014.0
20260506192034 18 269 0.0 11.3 0.00 0.03 0.03 56 1014.3
20260506191034 19 254 4.8 11.3 0.00 0.03 0.03 57 1014.4
20260506190034 19 216 0.0 6.4 0.00 0.03 0.03 57 1014.5
20260506185034 18 280 0.0 6.4 0.00 0.03 0.03 57 1014.5
20260506184034 18 295 0.0 4.8 0.00 0.03 0.03 58 1014.8
20260506183034 17 327 0.0 8.0 0.00 0.03 0.03 60 1014.9
20260506182034 17 335 0.0 8.0 0.00 0.03 0.03 59 1014.9
20260506180034 17 323 0.0 11.3 0.00 0.03 0.03 61 1015.1
20260506174034 16 296 0.0 11.3 0.00 0.03 0.03 63 1015.1
20260506173034 16 9 0.0 8.0 0.00 0.03 0.03 63 1015.2
20260506172034 16 278 0.0 8.0 0.00 0.03 0.03 65 1015.3
20260506171034 15 260 0.0 3.2 0.00 0.03 0.03 64 1015.3
20260506170034 15 250 0.0 6.4 0.03 0.03 0.03 64 1015.3
20260506165034 15 246 0.0 1.6 0.03 0.03 0.03 63 1015.4
20260506164134 14 256 0.0 1.6 0.03 0.03 0.03 64 1015.4
20260506163034 14 255 0.0 6.4 0.03 0.03 0.03 68 1015.4
20260506162034 13 255 0.0 6.4 0.03 0.03 0.03 74 1015.3
20260506161034 13 255 0.0 6.4 0.03 0.03 0.03 80 1015.4
20260506160034 13 255 0.0 4.8 0.03 0.03 0.03 85 1015.3
20260506155034 12 227 0.0 0.0 0.03 0.03 0.03 85 1015.3
20260506154034 12 227 0.0 0.0 0.00 0.00 0.00 86 1015.1
20260506153034 12 227 0.0 0.0 0.00 0.00 0.00 87 1015.1
20260506152034 11 227 0.0 0.0 0.00 0.00 0.00 87 1015.2
20260506150034 11 227 0.0 0.0 0.00 0.00 0.00 86 1015.4
20260506145034 10 227 0.0 0.0 0.00 0.00 0.00 86 1015.3
20260506144034 10 227 0.0 0.0 0.00 0.00 0.00 86 1015.4
20260506143034 10 227 0.0 0.0 0.00 0.00 0.00 85 1015.3
20260506142034 9 227 0.0 0.0 0.00 0.00 0.00 85 1015.3
20260506141034 9 227 0.0 0.0 0.00 0.00 0.00 85 1015.3
20260506140034 9 227 0.0 0.0 0.00 0.05 0.00 85 1015.2
20260506135034 8 268 0.0 0.0 0.00 0.05 0.00 84 1015.1
20260506134034 8 268 0.0 0.0 0.00 0.05 0.00 84 1014.8
20260506133034 8 268 0.0 0.0 0.00 0.20 0.00 83 1014.7
20260506132034 8 268 0.0 0.0 0.00 0.20 0.00 83 1014.5
20260506130034 8 268 0.0 0.0 0.00 0.20 0.00 82 1014.3
20260506125034 8 268 0.0 0.0 0.00 0.20 0.00 83 1014.3
20260506124034 8 268 0.0 0.0 0.00 0.20 0.00 82 1014.2
20260506122034 8 268 0.0 0.0 0.00 0.20 0.00 82 1014.0
20260506121034 9 268 0.0 0.0 0.00 0.20 0.00 82 1014.0
20260506120104 9 268 0.0 0.0 0.00 0.20 0.00 81 1014.0
20260506115034 9 268 0.0 0.0 0.00 0.20 0.00 81 1014.0
20260506114034 9 268 0.0 0.0 0.00 0.20 0.00 81 1013.9
20260506112034 10 268 0.0 0.0 0.00 0.20 0.00 80 1013.9
20260506111034 10 268 0.0 0.0 0.00 0.20 0.00 80 1013.9
20260506110034 10 268 0.0 0.0 0.00 0.20 0.00 80 1013.9
20260506105034 10 268 0.0 0.0 0.00 0.20 0.00 79 1013.9
20260506104104 10 268 0.0 0.0 0.00 0.20 0.00 79 1013.9
20260506103034 10 268 0.0 0.0 0.00 0.20 0.00 79 1013.9
20260506102034 10 268 0.0 0.0 0.00 0.20 0.00 78 1013.9
20260506101034 10 268 0.0 0.0 0.00 0.20 0.00 78 1013.9
20260506100035 10 268 0.0 0.0 0.00 0.20 0.00 77 1014.0
20260506094035 11 268 0.0 0.0 0.00 0.20 0.00 76 1014.0
20260506093034 11 268 0.0 0.0 0.00 0.20 0.00 75 1014.0
20260506092034 11 268 0.0 0.0 0.00 0.20 0.00 75 1014.0
20260506091034 11 268 0.0 0.0 0.00 0.20 0.00 74 1014.0
20260506090035 11 268 0.0 0.0 0.00 0.20 0.00 73 1014.1
20260506085035 11 268 0.0 0.0 0.00 0.20 0.00 72 1014.3
20260506084034 12 268 0.0 0.0 0.00 0.20 0.00 71 1014.4
20260506083035 12 268 0.0 0.0 0.00 0.28 0.00 70 1014.4
20260506082034 12 268 0.0 0.0 0.00 0.28 0.00 69 1014.2
20260506073034 13 268 0.0 0.0 0.00 0.30 0.00 68 1014.6
20260506072035 13 268 0.0 0.0 0.00 0.30 0.00 68 1014.6
20260506071034 13 268 0.0 0.0 0.00 0.30 0.00 68 1014.7
20260506062035 13 257 0.0 1.6 0.00 0.30 0.30 67 1014.1
20260506051035 14 249 0.0 8.0 0.00 0.30 0.30 65 1013.6
20260506045035 14 236 0.0 8.0 0.00 0.30 0.30 65 1013.1
20260506044034 14 257 0.0 8.0 0.00 0.30 0.30 64 1013.0
20260506042035 15 265 0.0 9.7 0.00 0.30 0.30 63 1012.9
20260506041035 15 248 4.8 8.0 0.00 0.30 0.30 63 1012.8
20260506040035 15 252 4.8 14.5 0.00 0.30 0.30 63 1012.7
20260506035035 15 244 6.4 12.9 0.00 0.30 0.30 62 1012.5
20260506034035 15 263 9.7 11.3 0.00 0.30 0.30 62 1012.2
20260506032035 15 242 0.0 11.3 0.00 0.30 0.30 61 1012.1
20260506031035 15 249 0.0 9.7 0.00 0.30 0.30 61 1011.8
20260506030105 15 257 3.2 12.9 0.00 0.30 0.30 61 1011.7
20260506024135 15 254 4.8 12.9 0.00 0.30 0.30 60 1011.3
20260506023035 15 237 6.4 14.5 0.00 0.30 0.30 60 1011.3
20260506022035 16 254 6.4 14.5 0.00 0.30 0.30 59 1011.1
20260506021035 16 270 4.8 14.5 0.00 0.30 0.30 59 1011.1
20260506020035 16 278 0.0 17.7 0.00 0.30 0.30 59 1010.9